This demonstration page uses our WeatherBlox Daily Observations layout. Learn more.

Hourly Observations for March 21, 2019

Temp ( °F °C ) Dew Point ( °F °C ) Humidity (%) Winds ( mph kmh ) Pressure ( in mb ) Visibility ( mi km ) Precip ( " mm )
12:15 am 00:15 Clear 33 0.6 30 -0.9 90 90 WNW 6 9 30.33 1027 10 16.09344 0 0
12:35 am 00:35 Clear 33 0.8 31 -0.8 89 89 NW 6 9 30.33 1027 10 16.09344 0 0
12:55 am 00:55 Clear 32 0 30 -1.2 92 92 WNW 7 11 30.33 1027 10 16.09344 0 0
1:15 am 01:15 Clear 33 0.7 31 -0.6 91 91 NW 8 13 30.33 1027 10 16.09344 0 0
1:35 am 01:35 Clear 32 -0.2 29 -1.7 90 90 W 8 13 30.33 1027 10 16.09344 0 0
1:55 am 01:55 Clear 32 0 30 -1.3 91 91 WNW 6 9 30.33 1027 10 16.09344 0 0
2:15 am 02:15 Clear 32 -0.2 29 -1.6 90 90 WNW 7 11 30.33 1027 10 16.09344 0 0
2:35 am 02:35 Clear 32 0 30 -1.3 91 91 WNW 7 11 30.33 1027 10 16.09344 0 0
2:55 am 02:55 Clear 32 -0.2 29 -1.7 90 90 WNW 7 11 30.33 1027 10 16.09344 0 0
3:15 am 03:15 Clear 32 -0.2 29 -1.6 90 90 WNW 6 9 30.33 1027 10 16.09344 0 0
3:35 am 03:35 Clear 31 -0.5 29 -1.8 91 91 WNW 6 9 30.36 1028 10 16.09344 0 0
3:55 am 03:55 Clear 31 -0.5 29 -1.9 90 90 WNW 5 7 30.36 1028 10 16.09344 0 0
4:15 am 04:15 Clear 30 -1 28 -2.3 91 91 NNW 6 9 30.36 1028 10 16.09344 0 0
4:35 am 04:35 Clear 30 -1 28 -2.3 91 91 NNW 8 13 30.36 1028 10 16.09344 0 0
4:55 am 04:55 Clear 29 -1.4 27 -2.6 92 92 W 6 9 30.36 1028 10 16.09344 0 0
5:15 am 05:15 Clear 29 -1.4 28 -2.5 92 92 Calm 30.36 1028 10 16.09344 0 0
5:35 am 05:35 Clear 29 -1.7 27 -3 91 91 Calm 30.36 1028 10 16.09344 0 0
5:55 am 05:55 Clear 28 -2.5 26 -3.6 92 92 WNW 3 6 30.36 1028 10 16.09344 0 0
6:15 am 06:15 Clear 29 -1.8 27 -2.9 92 92 WNW 6 9 30.36 1028 10 16.09344 0 0
6:35 am 06:35 Clear 28 -2.2 26 -3.4 92 92 NW 5 7 30.36 1028 10 16.09344 0 0
6:55 am 06:55 Clear 29 -1.8 27 -2.9 92 92 WNW 6 9 30.36 1028 10 16.09344 0 0
7:15 am 07:15 Clear 29 -1.7 27 -3 91 91 WNW 5 7 30.36 1028 10 16.09344 0 0
7:35 am 07:35 Clear 29 -1.6 27 -2.8 92 92 W 5 7 30.36 1028 10 16.09344 0 0
7:55 am 07:55 Sunny 29 -1.6 27 -3 90 90 NW 5 7 30.36 1028 10 16.09344 0 0
8:15 am 08:15 Sunny 30 -1.1 28 -2.5 90 90 NNW 5 7 30.36 1028 10 16.09344 0 0
8:35 am 08:35 Sunny 32 -0.2 29 -1.6 90 90 WNW 6 9 30.33 1027 10 16.09344 0 0
8:55 am 08:55 Sunny 33 0.5 30 -1 90 90 NW 6 9 30.33 1027 10 16.09344 0 0
9:15 am 09:15 Sunny 34 1.3 31 -0.4 89 89 WNW 6 9 30.33 1027 10 16.09344 0 0
9:35 am 09:35 Sunny 36 2.1 32 0 86 86 W 6 9 30.33 1027 10 16.09344 0 0
9:55 am 09:55 Sunny 37 2.6 32 0.2 84 84 WNW 8 13 30.33 1027 10 16.09344 0 0
10:15 am 10:15 Sunny 38 3.4 33 0.6 82 82 W 7 11 30.33 1027 10 16.09344 0 0
10:35 am 10:35 Sunny 40 4.5 33 0.6 76 76 W 7 11 30.33 1027 10 16.09344 0 0
10:55 am 10:55 Sunny 42 5.5 34 1.3 75 75 W 5 7 30.3 1026 10 16.09344 0 0
11:15 am 11:15 Sunny 44 6.8 36 2.3 73 73 Calm 30.27 1025 10 16.09344 0 0
11:35 am 11:35 Sunny 47 8.4 37 2.8 68 68 Calm 30.27 1025 10 16.09344 0 0
11:55 am 11:55 Sunny 49 9.6 35 1.7 58 58 W 6 9 30.24 1024 10 16.09344 0 0
12:15 pm 12:15 Sunny 51 10.6 35 1.7 54 54 W 6 9 30.21 1023 10 16.09344 0 0
12:35 pm 12:35 Sunny 53 11.5 35 1.5 51 51 W 5 7 30.21 1023 10 16.09344 0 0
12:55 pm 12:55 Sunny 54 12.3 35 1.9 49 49 WNW 7 11 30.18 1022 10 16.09344 0 0
1:15 pm 13:15 Sunny 56 13.1 36 2.4 49 49 W 8 13 30.18 1022 10 16.09344 0 0
1:35 pm 13:35 Sunny 56 13.6 37 2.7 48 48 W 6 9 30.15 1021 10 16.09344 0 0
1:55 pm 13:55 Sunny 57 14 37 2.7 47 47 W 6 9 30.15 1021 10 16.09344 0 0
2:15 pm 14:15 Sunny 58 14.5 36 2 43 43 NW 5 7 30.15 1021 10 16.09344 0 0
2:35 pm 14:35 Sunny 59 15.1 36 2.1 42 42 WSW 6 9 30.12 1020 10 16.09344 0 0
2:55 pm 14:55 Sunny 60 15.7 35 1.8 39 39 W 8 13 30.09 1019 10 16.09344 0 0
3:15 pm 15:15 Sunny 61 16 35 1.8 39 39 WSW 6 9 30.09 1019 10 16.09344 0 0
3:35 pm 15:35 Sunny 61 16.1 34 1.3 37 37 Calm 30.09 1019 10 16.09344 0 0
3:55 pm 15:55 Sunny 62 16.6 35 1.6 37 37 W 3 6 30.09 1019 10 16.09344 0 0
4:15 pm 16:15 Sunny 62 16.7 35 1.6 36 36 NW 3 6 30.09 1019 10 16.09344 0 0
4:35 pm 16:35 Sunny 63 17.2 35 1.8 36 36 NNW 6 9 30.09 1019 10 16.09344 0 0
4:55 pm 16:55 Sunny 63 17.3 34 1 33 33 Calm 30.06 1018 10 16.09344 0 0
5:15 pm 17:15 Sunny 63 17.2 35 1.5 35 35 NE 5 7 30.06 1018 10 16.09344 0 0
5:35 pm 17:35 Sunny 63 17.3 35 1.6 35 35 N 3 6 30.06 1018 10 16.09344 0 0
5:55 pm 17:55 Sunny 63 17.3 35 1.4 34 34 Calm 30.06 1018 10 16.09344 0 0
6:15 pm 18:15 Sunny 63 17.4 34 1.3 34 34 Calm 30.03 1017 10 16.09344 0 0
6:35 pm 18:35 Sunny 64 17.5 35 1.6 35 35 SE 7 11 30.03 1017 10 16.09344 0 0
6:55 pm 18:55 Sunny 62 16.5 37 2.6 40 40 Calm 30.06 1018 10 16.09344 0 0
7:15 pm 19:15 Sunny 60 15.4 37 2.9 43 43 SE 5 7 30.06 1018 10 16.09344 0 0
7:55 pm 19:55 Clear 58 14.3 36 2 44 44 SE 5 7 30.06 1018 10 16.09344 0 0
8:15 pm 20:15 Clear 56 13.2 36 2.2 48 48 SE 6 9 30.09 1019 10 16.09344 0 0
8:35 pm 20:35 Clear 55 12.6 36 2 49 49 SE 6 9 30.09 1019 10 16.09344 0 0
8:55 pm 20:55 Clear 53 11.8 36 2.3 52 52 SE 6 9 30.09 1019 10 16.09344 0 0
9:35 pm 21:35 Clear 50 10.1 36 2.3 59 59 SSE 7 11 30.12 1020 10 16.09344 0 0
9:55 pm 21:55 Clear 48 8.8 36 2 63 63 SSE 6 9 30.12 1020 10 16.09344 0 0
10:15 pm 22:15 Clear 47 8.4 36 2 64 64 ESE 7 11 30.12 1020 10 16.09344 0 0
10:35 pm 22:35 Clear 49 9.2 36 2.2 62 62 S 7 11 30.12 1020 10 16.09344 0 0
10:55 pm 22:55 Clear 45 7.1 35 1.7 69 69 SSE 6 9 30.15 1021 10 16.09344 0 0
11:15 pm 23:15 Clear 45 7.2 35 1.5 67 67 S 7 11 30.15 1021 10 16.09344 0 0
11:35 pm 23:35 Clear 42 5.5 34 1.2 74 74 S 7 11 30.18 1022 10 16.09344 0 0
11:55 pm 23:55 Clear 42 5.8 35 1.5 74 74 S 8 13 30.18 1022 10 16.09344 0 0

Powered by AerisWeather